EN

Hourly Weather Palomares

Today, 2 March, Tuesday

Time Temperature Precipitation Wind Pressure Humidity
00:00 +24°C° 0 mm 2 mps 751 mmHg 95%
01:00 +24°C° 0 mm 2 mps 750 mmHg 95%
02:00 +24°C° 0 mm 2 mps 750 mmHg 95%
03:00 +22°C° 0 mm 3 mps 750 mmHg 95%
04:00 +22°C° 0.1 mm 3 mps 750 mmHg 95%
05:00 +24°C° 0.1 mm 2 mps 751 mmHg 96%
06:00 +24°C° 0 mm 3 mps 751 mmHg 97%
07:00 +24°C° 0.3 mm 3 mps 751 mmHg 94%
08:00 +25°C° 0.3 mm 4 mps 752 mmHg 92%
09:00 +26°C° 0.3 mm 4 mps 752 mmHg 89%
10:00 +26°C° 0.7 mm 5 mps 752 mmHg 88%
11:00 +26°C° 0.7 mm 6 mps 752 mmHg 87%
12:00 +26°C° 0.7 mm 6 mps 752 mmHg 86%
13:00 +26°C° 0.4 mm 6 mps 751 mmHg 85%
14:00 +24°C° 0.4 mm 6 mps 751 mmHg 85%
15:00 +23°C° 0.4 mm 6 mps 750 mmHg 84%
16:00 +23°C° 0.3 mm 6 mps 751 mmHg 86%
17:00 +22°C° 0.3 mm 6 mps 751 mmHg 88%
18:00 +21°C° 0.3 mm 6 mps 752 mmHg 90%
19:00 +21°C° 0.1 mm 5 mps 752 mmHg 90%
20:00 +21°C° 0.1 mm 5 mps 753 mmHg 90%
21:00 +20°C° 0.1 mm 5 mps 754 mmHg 89%
22:00 +20°C° 0 mm 4 mps 754 mmHg 88%
23:00 +20°C° 0 mm 4 mps 754 mmHg 87%

Tomorrow, 3 March, Wednesday

Time Temperature Precipitation Wind Pressure Humidity
00:00 +20°C° 0 mm 4 mps 754 mmHg 86%
01:00 +20°C° 0 mm 4 mps 754 mmHg 87%
02:00 +20°C° 0 mm 4 mps 753 mmHg 87%
03:00 +20°C° 0 mm 4 mps 753 mmHg 88%
04:00 +20°C° 0 mm 4 mps 753 mmHg 88%
05:00 +20°C° 0 mm 3 mps 753 mmHg 88%
06:00 +20°C° 0 mm 3 mps 753 mmHg 88%
07:00 +20°C° 0 mm 3 mps 753 mmHg 86%
08:00 +21°C° 0 mm 3 mps 754 mmHg 84%
09:00 +21°C° 0 mm 3 mps 754 mmHg 82%
10:00 +22°C° 0 mm 3 mps 754 mmHg 77%
11:00 +25°C° 0 mm 3 mps 753 mmHg 73%
12:00 +26°C° 0 mm 3 mps 753 mmHg 68%
13:00 +26°C° 0 mm 3 mps 753 mmHg 67%
14:00 +27°C° 0 mm 3 mps 752 mmHg 67%
15:00 +28°C° 0 mm 3 mps 751 mmHg 66%
16:00 +27°C° 0.1 mm 3 mps 751 mmHg 72%
17:00 +26°C° 0.1 mm 3 mps 752 mmHg 78%
18:00 +25°C° 0.1 mm 3 mps 752 mmHg 85%
19:00 +24°C° 0.1 mm 3 mps 753 mmHg 87%
20:00 +23°C° 0.1 mm 2 mps 753 mmHg 88%
21:00 +23°C° 0.1 mm 2 mps 754 mmHg 90%
22:00 +23°C° 0.1 mm 2 mps 754 mmHg 91%
23:00 +21°C° 0.1 mm 2 mps 754 mmHg 92%

Day after tomorrow, 4 March, Thursday

Time Temperature Precipitation Wind Pressure Humidity
00:00 +21°C° 0.1 mm 3 mps 755 mmHg 93%
01:00 +21°C° 0 mm 3 mps 754 mmHg 93%
02:00 +21°C° 0 mm 3 mps 754 mmHg 93%
03:00 +21°C° 0 mm 3 mps 753 mmHg 93%
04:00 +21°C° 0 mm 3 mps 753 mmHg 93%
05:00 +20°C° 0 mm 2 mps 753 mmHg 93%
06:00 +20°C° 0 mm 2 mps 753 mmHg 93%
07:00 +21°C° 0 mm 3 mps 754 mmHg 90%
08:00 +22°C° 0 mm 3 mps 754 mmHg 88%
09:00 +22°C° 0 mm 3 mps 755 mmHg 85%
10:00 +24°C° 0 mm 3 mps 754 mmHg 81%
11:00 +25°C° 0 mm 3 mps 753 mmHg 78%
12:00 +26°C° 0 mm 3 mps 753 mmHg 74%
13:00 +27°C° 0.1 mm 3 mps 752 mmHg 74%
14:00 +27°C° 0.1 mm 3 mps 751 mmHg 73%
15:00 +28°C° 0.1 mm 3 mps 751 mmHg 72%
16:00 +27°C° 0.1 mm 3 mps 751 mmHg 76%
17:00 +27°C° 0.1 mm 3 mps 751 mmHg 81%
18:00 +26°C° 0.1 mm 3 mps 750 mmHg 85%
19:00 +25°C° 0 mm 2 mps 751 mmHg 88%
20:00 +24°C° 0 mm 2 mps 752 mmHg 92%
21:00 +23°C° 0 mm 1 mps 752 mmHg 96%
22:00 +23°C° 0 mm 1 mps 752 mmHg 96%
23:00 +22°C° 0 mm 1 mps 752 mmHg 96%

5 March, Friday

Time Temperature Precipitation Wind Pressure Humidity
00:00 +22°C° 0 mm 1 mps 752 mmHg 96%
01:00 +22°C° 0 mm 1 mps 751 mmHg 97%
02:00 +20°C° 0 mm 0 mps 751 mmHg 97%
03:00 +20°C° 0 mm 0 mps 750 mmHg 97%
04:00 +20°C° 0 mm 0 mps 750 mmHg 97%
05:00 +20°C° 0 mm 0 mps 750 mmHg 96%
06:00 +20°C° 0 mm 0 mps 750 mmHg 96%
07:00 +22°C° 0 mm 0 mps 750 mmHg 92%
08:00 +23°C° 0 mm 0 mps 751 mmHg 87%
09:00 +24°C° 0 mm 0 mps 751 mmHg 83%
10:00 +26°C° 0 mm 0 mps 750 mmHg 75%
11:00 +30°C° 0 mm 1 mps 750 mmHg 67%
12:00 +32°C° 0 mm 1 mps 749 mmHg 60%
13:00 +32°C° 0 mm 1 mps 749 mmHg 58%
14:00 +33°C° 0 mm 1 mps 748 mmHg 55%
15:00 +34°C° 0 mm 2 mps 747 mmHg 53%
16:00 +32°C° 0 mm 2 mps 747 mmHg 60%
17:00 +31°C° 0 mm 2 mps 748 mmHg 67%
18:00 +29°C° 0 mm 2 mps 748 mmHg 74%
19:00 +28°C° 0 mm 2 mps 749 mmHg 81%
20:00 +26°C° 0 mm 1 mps 750 mmHg 87%
21:00 +25°C° 0 mm 1 mps 751 mmHg 94%
22:00 +25°C° 0.1 mm 1 mps 751 mmHg 95%
23:00 +24°C° 0.1 mm 1 mps 751 mmHg 95%

6 March, Saturday

Time Temperature Precipitation Wind Pressure Humidity
00:00 +24°C° 0.1 mm 2 mps 751 mmHg 96%
01:00 +24°C° 0.3 mm 2 mps 751 mmHg 96%
02:00 +24°C° 0.3 mm 2 mps 750 mmHg 97%
03:00 +24°C° 0.3 mm 2 mps 750 mmHg 97%
04:00 +24°C° 0.2 mm 2 mps 750 mmHg 97%
05:00 +23°C° 0.2 mm 2 mps 751 mmHg 97%
06:00 +23°C° 0.2 mm 2 mps 751 mmHg 97%
07:00 +24°C° 0.2 mm 2 mps 751 mmHg 94%
08:00 +25°C° 0.2 mm 3 mps 752 mmHg 91%
09:00 +26°C° 0.2 mm 3 mps 753 mmHg 89%
10:00 +26°C° 0.6 mm 4 mps 753 mmHg 88%
11:00 +26°C° 0.6 mm 5 mps 752 mmHg 86%
12:00 +26°C° 0.6 mm 5 mps 752 mmHg 85%
13:00 +26°C° 0.6 mm 5 mps 752 mmHg 84%
14:00 +26°C° 0.6 mm 6 mps 751 mmHg 83%
15:00 +26°C° 0.6 mm 6 mps 751 mmHg 82%
16:00 +25°C° 0.5 mm 5 mps 751 mmHg 85%
17:00 +23°C° 0.5 mm 5 mps 751 mmHg 89%
18:00 +21°C° 0.5 mm 4 mps 751 mmHg 93%
19:00 +21°C° 0.6 mm 4 mps 752 mmHg 93%
20:00 +21°C° 0.6 mm 4 mps 753 mmHg 93%
21:00 +21°C° 0.6 mm 3 mps 753 mmHg 94%
22:00 +21°C° 0.1 mm 3 mps 753 mmHg 92%
23:00 +20°C° 0.1 mm 3 mps 754 mmHg 91%

7 March, Sunday

Time Temperature Precipitation Wind Pressure Humidity
00:00 +20°C° 0.1 mm 3 mps 754 mmHg 89%
01:00 +20°C° 0 mm 3 mps 753 mmHg 88%
02:00 +19°C° 0 mm 3 mps 753 mmHg 87%
03:00 +19°C° 0 mm 3 mps 753 mmHg 86%
04:00 +19°C° 0 mm 2 mps 753 mmHg 87%
05:00 +18°C° 0 mm 2 mps 753 mmHg 88%
06:00 +18°C° 0 mm 2 mps 753 mmHg 90%
07:00 +19°C° 0 mm 2 mps 753 mmHg 85%
08:00 +21°C° 0 mm 3 mps 754 mmHg 80%
09:00 +22°C° 0 mm 3 mps 754 mmHg 76%
10:00 +25°C° 0 mm 3 mps 754 mmHg 69%
11:00 +26°C° 0 mm 4 mps 753 mmHg 63%
12:00 +28°C° 0 mm 4 mps 753 mmHg 57%
13:00 +28°C° 0 mm 4 mps 752 mmHg 56%
14:00 +28°C° 0 mm 4 mps 752 mmHg 55%
15:00 +28°C° 0 mm 4 mps 751 mmHg 55%
16:00 +27°C° 0 mm 4 mps 751 mmHg 61%
17:00 +26°C° 0 mm 4 mps 752 mmHg 67%
18:00 +25°C° 0 mm 4 mps 752 mmHg 74%
19:00 +22°C° 0 mm 3 mps 753 mmHg 77%
20:00 +21°C° 0 mm 3 mps 754 mmHg 81%
21:00 +20°C° 0 mm 2 mps 754 mmHg 85%
22:00 +20°C° 0 mm 2 mps 754 mmHg 87%
23:00 +19°C° 0 mm 2 mps 755 mmHg 88%
Show more

We Need Your Consent

Meteoprog and our Service Providers may store and access personal data such as cookies, device identifiers or other similar technologies on your device and process such data to personalise content and ads, as well as provide social media features and to analyse the traffic.

  • Store and/or access information on your device

    Cookies, device identifiers or other information can be stored or accessed on your device for the purposes indicated above.

  • Personalised ads and content, ad and content measurement, audience insights, and products development

    Ads and content can be personalised based on a profile. More data can be added to better personalise ads and content. Ad and content performance can be measured. Insights about the audience who saw the ads and content can be derived. Such data can be used to develop or improve user’s experience, systems and software.

By clicking ‘I Agree’ you will allow the use of indicated cookies, device identifiers, web beacons or other similar technologies. Your settings can be changed in the browser on your device.

For certain purposes, legitimate interests may be relied on, rather than consent. You can read more about this in our Privacy and Cookie Policy.